Terug naar catalogus

FENGYUN 1C DEB

ActiefPO
NORAD 31527·DEBRIS·🇨🇳 China

Gelanceerd May 10, 1999 vanaf Taiyuan Satellite Launch Center

Loading…

Volgende Passages (komende 24 uur)

TLE

VersSource: Space-Track

Epoch: Sep 12, 2026, 15:30 UTC

1 31527U 99025BXS 26255.64613798  .00000259  00000-0  40835-3 0  9996
2 31527  98.9288  27.3006 0448158 352.2474   7.1877 13.23624064938134

Volg FENGYUN 1C DEB in realtime met AllMySat

Download on the App Store